Weather History for KSDB - November, 2011

Change the Weather History Date:

Sunday, November 20, 2011

  Actual Average Record
Temperature  
Mean Temperature 36 °F 48 °F  
Max Temperature 37 °F 54 °F 73 °F (1995)
Min Temperature 34 °F 41 °F 24 °F (1977)
Degree Days  
Heating Degree Days 29 18  
Month to date heating degree days 397 284  
Since 1 July heating degree days 573 585  
Cooling Degree Days 0 0  
Month to date cooling degree days 0 0  
Year to date cooling degree days 1095 996  
Moisture  
Dew Point 35 °F    
Average Humidity 96    
Maximum Humidity 100    
Minimum Humidity 92    
Precipitation  
Precipitation 0.68 in 0.02 in 2.31 in (1967)
Month to date precipitation 1.49 0.46  
Year to date precipitation 7.85 9.76  
Since 1 July precipitation 2.03 1.28  
Sea Level Pressure  
Sea Level Pressure 29.90 in    
Wind  
Wind Speed 16 mph (SSW)    
Max Wind Speed 32 mph    
Max Gust Speed 41 mph    
Visibility 2 miles    
Events Fog , Rain , Snow    
T = Trace of Precipitation, MM = Missing Value Source: NWS Daily Summary

Daily Weather History Graph

Daily Weather History Graph

Search for Another Location

Airport or City:

Trip Planner

Search our weather history database for the weather conditions in past years. The results will help you decide how hot, cold, wet, or windy it might be!

Date:

Astronomy

Nov. 20, 2011 Rise Set
Actual Time 6:33 AM PST 4:47 PM PST
Civil Twilight 6:06 AM PST 5:14 PM PST
Nautical Twilight 5:35 AM PST 5:44 PM PST
Astronomical Twilight 5:05 AM PST 6:15 PM PST
Moon 1:18 AM PST (11/20) 1:29 PM PST (11/20)
Length of Visible Light 11h 07m
Length of Day
10h 13m
Waning Crescent, 26% of the Moon is Illuminated
Nov 20
Waning Crescent
Nov 24
New
Dec 2
First Quarter
Dec 10
Full
Dec 17
Last Quarter

Hourly Weather History & Observations

Time (PST) Temp. Windchill Dew Point Humidity Pressure Visibility Wind Dir Wind Speed Gust Speed Precip Events Conditions
12:52 AM 37.0 °F 25.6 °F 37.0 °F 100% 29.82 in 0.2 mi SSW 24.2 mph 34.5 mph 0.00 in Fog , Snow Light Snow
1:52 AM 36.0 °F 23.0 °F 36.0 °F 100% 29.80 in 0.2 mi SSW 29.9 mph 39.1 mph 0.01 in Fog , Snow Light Snow
2:52 AM 35.1 °F 23.3 °F 35.1 °F 100% 29.83 in 0.2 mi SSW 23.0 mph 34.5 mph 0.00 in Fog Fog
3:52 AM 35.1 °F 24.5 °F 35.1 °F 100% 29.82 in 0.2 mi SSW 18.4 mph 28.8 mph 0.02 in Fog Fog
4:52 AM 35.1 °F 23.8 °F 35.1 °F 100% 29.83 in 0.2 mi South 20.7 mph 38.0 mph 0.00 in Fog , Snow Light Snow
5:52 AM 35.1 °F 23.5 °F 35.1 °F 100% 29.81 in 0.2 mi SSW 21.9 mph 36.8 mph 0.01 in Fog Fog
6:52 AM 36.0 °F 26.0 °F 36.0 °F 100% 29.85 in 0.2 mi South 17.3 mph 25.3 mph 0.01 in Fog , Snow Light Snow
7:52 AM 36.0 °F 24.7 °F 36.0 °F 100% 29.86 in 0.2 mi South 21.9 mph 34.5 mph 0.03 in Fog , Snow Light Snow
8:02 AM - - - N/A% - - North - - N/A   Unknown
8:52 AM 36.0 °F 25.6 °F 36.0 °F 100% 29.88 in 0.2 mi South 18.4 mph 28.8 mph 0.06 in Fog , Snow Light Snow
9:52 AM 36.0 °F 26.7 °F 36.0 °F 100% 29.88 in 0.2 mi South 15.0 mph 29.9 mph 0.03 in Fog , Snow Light Snow
10:52 AM 37.0 °F 27.0 °F 37.0 °F 100% 29.88 in 0.2 mi SSW 18.4 mph 29.9 mph 0.09 in Fog , Rain Rain
11:52 AM 37.0 °F 24.9 °F 37.0 °F 100% 29.85 in 0.2 mi South 27.6 mph 35.7 mph 0.10 in Fog , Snow Light Snow
12:52 PM 37.0 °F 26.4 °F 37.0 °F 100% 29.85 in 0.2 mi South 20.7 mph 29.9 mph 0.10 in Fog , Snow Light Snow
1:25 PM 35.6 °F 27.1 °F 35.6 °F 100% 29.88 in 0.2 mi SW 12.7 mph - 0.07 in Fog , Rain Rain
1:40 PM 35.6 °F 27.5 °F 35.6 °F 100% 29.87 in 0.5 mi SSW 11.5 mph - N/A Fog , Rain Light Rain
1:47 PM 35.6 °F 28.0 °F 35.6 °F 100% 29.86 in 0.2 mi SSW 10.4 mph - 0.11 in Fog , Rain Light Rain
1:52 PM 36.0 °F 28.5 °F 36.0 °F 100% 29.85 in 0.2 mi South 10.4 mph - 0.12 in Fog , Rain Light Rain
2:01 PM 35.6 °F 28.6 °F 35.6 °F 100% 29.87 in 0.2 mi SSW 9.2 mph - 0.00 in Fog , Rain Light Rain
2:52 PM 35.1 °F 25.5 °F 35.1 °F 100% 29.86 in 0.2 mi South 15.0 mph 21.9 mph 0.06 in Fog , Snow Light Snow
3:31 PM 35.6 °F 26.2 °F 35.6 °F 100% 29.86 in 0.8 mi SSW 15.0 mph - 0.03 in Rain Light Rain
3:37 PM 35.6 °F 26.2 °F 35.6 °F 100% 29.86 in 3.0 mi SSW 15.0 mph 20.7 mph 0.03 in Rain Light Rain
3:40 PM 35.6 °F 26.2 °F 35.6 °F 100% 29.86 in 1.8 mi SSW 15.0 mph - 0.03 in Rain Light Rain
3:44 PM 35.6 °F 27.1 °F 35.6 °F 100% 29.86 in 0.8 mi SSW 12.7 mph 20.7 mph 0.03 in Rain Light Rain
3:52 PM 35.1 °F 25.9 °F 35.1 °F 100% 29.86 in 0.5 mi SSW 13.8 mph - 0.04 in Fog , Rain Light Rain
3:56 PM 35.6 °F 26.6 °F 35.6 °F 100% 29.86 in 0.2 mi South 13.8 mph 20.7 mph 0.00 in Fog , Rain Light Rain
4:52 PM 36.0 °F 28.5 °F 36.0 °F 100% 29.88 in 0.2 mi SSW 10.4 mph - 0.00 in Fog Fog
5:26 PM 37.4 °F 30.3 °F 35.6 °F 93% 29.88 in 0.2 mi South 10.4 mph - N/A Fog Fog
5:52 PM 37.0 °F 30.4 °F 36.0 °F 96% 29.88 in 0.2 mi SSW 9.2 mph - N/A Fog Fog
6:07 PM 37.4 °F 30.8 °F 35.6 °F 93% 29.90 in 0.2 mi South 9.2 mph - N/A Fog Fog
6:42 PM 35.6 °F 29.9 °F 35.6 °F 100% 29.91 in 0.8 mi South 6.9 mph - N/A   Overcast
6:46 PM 35.6 °F 30.7 °F 35.6 °F 100% 29.91 in 1.0 mi South 5.8 mph - N/A   Overcast
6:52 PM 36.0 °F 31.1 °F 36.0 °F 100% 29.91 in 0.8 mi South 5.8 mph - N/A   Mist
7:14 PM 35.6 °F 30.7 °F 35.6 °F 100% 29.92 in 0.2 mi SSW 5.8 mph - N/A Fog Fog
7:32 PM 35.6 °F 29.9 °F 35.6 °F 100% 29.92 in 0.5 mi South 6.9 mph - N/A Fog Fog
7:39 PM 35.6 °F 30.7 °F 35.6 °F 100% 29.93 in 0.2 mi SSW 5.8 mph - N/A Fog Fog
7:50 PM 35.6 °F 30.7 °F 35.6 °F 100% 29.93 in 0.8 mi SSW 5.8 mph - N/A   Overcast
7:52 PM 36.0 °F 31.1 °F 36.0 °F 100% 29.92 in 1.0 mi SSW 5.8 mph - N/A   Overcast
7:56 PM 35.6 °F 30.7 °F 35.6 °F 100% 29.93 in 0.5 mi SSW 5.8 mph - N/A Fog Fog
8:01 PM 35.6 °F 32.8 °F 35.6 °F 100% 29.93 in 0.2 mi SSW 3.5 mph - N/A Fog Fog
8:23 PM 35.6 °F 31.7 °F 35.6 °F 100% 29.94 in 0.8 mi SW 4.6 mph - N/A   Overcast
8:25 PM 35.6 °F 32.8 °F 35.6 °F 100% 29.94 in 1.5 mi SW 3.5 mph - N/A   Overcast
8:27 PM 35.6 °F - 35.6 °F 100% 29.94 in 4.0 mi Calm Calm - N/A   Overcast
8:32 PM 35.6 °F - 35.6 °F 100% 29.94 in 10.0 mi Calm Calm - N/A   Overcast
8:52 PM 36.0 °F - 34.0 °F 93% 29.94 in 10.0 mi Calm Calm - N/A   Mostly Cloudy
8:56 PM 35.6 °F - 33.8 °F 93% 29.95 in 10.0 mi Calm Calm - N/A   Scattered Clouds
9:18 PM 35.6 °F - 33.8 °F 93% 29.95 in 10.0 mi Calm Calm - N/A   Partly Cloudy
9:24 PM 35.6 °F 30.7 °F 33.8 °F 93% 29.96 in 1.2 mi West 5.8 mph - N/A   Mostly Cloudy
9:28 PM 35.6 °F 31.7 °F 33.8 °F 93% 29.96 in 0.5 mi West 4.6 mph - N/A Fog Fog
9:33 PM 35.6 °F 30.7 °F 33.8 °F 93% 29.96 in 0.2 mi WSW 5.8 mph - N/A Fog Fog
9:52 PM 35.1 °F 31.0 °F 35.1 °F 100% 29.96 in 0.2 mi WSW 4.6 mph - N/A Fog Fog
10:52 PM 35.1 °F 32.2 °F 34.0 °F 96% 29.97 in 0.2 mi SW 3.5 mph - N/A Fog Fog
11:41 PM 33.8 °F 30.8 °F 33.8 °F 100% 29.97 in 0.5 mi East 3.5 mph - N/A Fog Fog
11:44 PM 35.6 °F - 33.8 °F 93% 29.97 in 1.5 mi Calm Calm - N/A   Mostly Cloudy
11:46 PM 35.6 °F - 33.8 °F 93% 29.98 in 5.0 mi Calm Calm - N/A   Mostly Cloudy
11:52 PM 34.0 °F - 34.0 °F 100% 29.97 in 10.0 mi Calm Calm - N/A   Scattered Clouds